QPF
0.07 0.05 0.05 0.06 0.06 0.05 0.05 0.06 0.05 0.05 0.04 0.04 0.04 0.05 0.06 0.07 0.12 0.12 0.13 0.15 0.15 0.14 0.15 0.15 0.12 0.09 0.08 0.06 0.04 0.03 0.02 0.02 0.01 0.00 0.00 0.00 0.00 0.00 0.00 0.00 0.00 0.00 0.00
0.05 0.05 0.05 0.04 0.04 0.04 0.05 0.05 0.06 0.05 0.03 0.03 0.03 0.04 0.05 0.06 0.08 0.09 0.11 0.12 0.13 0.12 0.12 0.13 0.13 0.13 0.11 0.09 0.07 0.04 0.03 0.02 0.02 0.01 0.00 0.00 0.00 0.00 0.00 0.00 0.00 0.00 0.00
0.05 0.05 0.04 0.03 0.02 0.03 0.03 0.03 0.06 0.07 0.05 0.04 0.03 0.03 0.03 0.04 0.05 0.05 0.07 0.08 0.07 0.07 0.08 0.08 0.11 0.13 0.14 0.13 0.10 0.07 0.05 0.03 0.02 0.01 0.01 0.00 0.00 0.00 0.00 0.00 0.00 0.00 0.00
0.04 0.03 0.02 0.02 0.01 0.01 0.01 0.02 0.02 0.04 0.04 0.04 0.02 0.02 0.02 0.03 0.03 0.03 0.03 0.03 0.03 0.03 0.04 0.06 0.07 0.08 0.10 0.12 0.12 0.11 0.07 0.05 0.04 0.02 0.01 0.00 0.00 0.00 0.00 0.00 0.00 0.00 0.00
0.01 0.01 0.01 0.00 0.01 0.02 0.01 0.02 0.02 0.03 0.04 0.03 0.02 0.02 0.02 0.02 0.02 0.02 0.02 0.02 0.03 0.04 0.04 0.05 0.07 0.06 0.07 0.09 0.12 0.13 0.13 0.11 0.07 0.05 0.02 0.01 0.01 0.00 0.00 0.00 0.00 0.00 0.00
0.00 0.00 0.00 0.00 0.01 0.01 0.01 0.01 0.01 0.01 0.02 0.02 0.01 0.02 0.02 0.01 0.01 0.01 0.01 0.01 0.02 0.03 0.04 0.04 0.04 0.05 0.08 0.10 0.12 0.14 0.16 0.15 0.11 0.09 0.07 0.04 0.02 0.01 0.00 0.00 0.00 0.00 0.00
0.00 0.00 0.00 0.00 0.00 0.00 0.00 0.00 0.00 0.00 0.00 0.01 0.02 0.02 0.02 0.01 0.01 0.01 0.01 0.01 0.02 0.03 0.04 0.05 0.06 0.06 0.05 0.07 0.08 0.12 0.15 0.15 0.14 0.11 0.10 0.07 0.04 0.02 0.01 0.00 0.00 0.00 0.00
0.00 0.00 0.00 0.00 0.00 0.00 0.00 0.00 0.00 0.00 0.00 0.00 0.01 0.01 0.01 0.01 0.00 0.01 0.01 0.02 0.02 0.03 0.03 0.04 0.07 0.08 0.07 0.06 0.05 0.08 0.12 0.14 0.16 0.15 0.13 0.10 0.08 0.05 0.01 0.01 0.00 0.00 0.00
0.00 0.00 0.00 0.00 0.00 0.00 0.00 0.00 0.00 0.00 0.00 0.00 0.00 0.01 0.01 0.00 0.00 0.00 0.01 0.01 0.02 0.02 0.03 0.02 0.03 0.05 0.06 0.08 0.06 0.08 0.12 0.13 0.17 0.20 0.20 0.15 0.09 0.07 0.04 0.03 0.01 0.00 0.00
0.00 0.00 0.00 0.00 0.00 0.00 0.00 0.00 0.00 0.00 0.00 0.00 0.00 0.00 0.00 0.00 0.00 0.00 0.00 0.00 0.01 0.02 0.02 0.02 0.03 0.03 0.05 0.05 0.06 0.07 0.09 0.11 0.15 0.21 0.23 0.22 0.17 0.09 0.06 0.05 0.05 0.03 0.01
0.00 0.00 0.00 0.00 0.00 0.00 0.00 0.00 0.00 0.00 0.00 0.00 0.00 0.00 0.00 0.00 0.00 0.00 0.00 0.00 0.00 0.01 0.01 0.02 0.02 0.02 0.02 0.03 0.03 0.05 0.08 0.08 0.09 0.14 0.18 0.21 0.23 0.18 0.11 0.08 0.09 0.08 0.05
0.00 0.00 0.00 0.00 0.00 0.00 0.00 0.00 0.00 0.00 0.00 0.00 0.00 0.00 0.00 0.00 0.00 0.00 0.00 0.00 0.00 0.00 0.00 0.01 0.01 0.01 0.02 0.02 0.02 0.03 0.05 0.07 0.06 0.07 0.10 0.13 0.17 0.21 0.20 0.15 0.13 0.13 0.10
0.00 0.00 0.00 0.00 0.00 0.00 0.00 0.00 0.00 0.00 0.00 0.00 0.00 0.00 0.00 0.00 0.00 0.00 0.00 0.00 0.00 0.00 0.00 0.00 0.01 0.01 0.02 0.02 0.02 0.03 0.03 0.04 0.05 0.05 0.06 0.08 0.10 0.13 0.16 0.17 0.17 0.16 0.15
0.00 0.00 0.00 0.00 0.00 0.00 0.00 0.00 0.00 0.00 0.00 0.00 0.00 0.00 0.00 0.00 0.00 0.00 0.00 0.00 0.00 0.00 0.00 0.00 0.01 0.02 0.02 0.02 0.03 0.03 0.02 0.02 0.03 0.03 0.05 0.06 0.08 0.09 0.09 0.12 0.13 0.14 0.14
0.00 0.00 0.00 0.00 0.00 0.00 0.00 0.00 0.00 0.00 0.00 0.00 0.00 0.00 0.00 0.00 0.00 0.00 0.00 0.00 0.01 0.00 0.00 0.00 0.00 0.01 0.01 0.02 0.04 0.04 0.03 0.03 0.03 0.03 0.04 0.04 0.06 0.07 0.08 0.08 0.08 0.09 0.08
0.00 0.00 0.00 0.00 0.00 0.00 0.00 0.00 0.00 0.00 0.00 0.00 0.00 0.00 0.00 0.00 0.00 0.00 0.00 0.00 0.01 0.00 0.00 0.00 0.00 0.00 0.01 0.01 0.02 0.03 0.03 0.03 0.04 0.04 0.03 0.03 0.04 0.05 0.06 0.06 0.06 0.07 0.09
0.00 0.00 0.00 0.00 0.00 0.00 0.00 0.00 0.00 0.00 0.00 0.00 0.00 0.00 0.00 0.00 0.00 0.00 0.00 0.00 0.00 0.01 0.00 0.00 0.00 0.00 0.01 0.01 0.01 0.02 0.03 0.03 0.03 0.03 0.02 0.02 0.02 0.03 0.03 0.04 0.04 0.05 0.07
0.00 0.00 0.00 0.00 0.00 0.00 0.00 0.00 0.00 0.00 0.00 0.00 0.00 0.00 0.00 0.00 0.00 0.00 0.00 0.00 0.00 0.01 0.01 0.00 0.00 0.00 0.00 0.00 0.01 0.01 0.02 0.02 0.02 0.02 0.02 0.02 0.02 0.02 0.02 0.03 0.04 0.05 0.04
0.00 0.00 0.00 0.00 0.00 0.00 0.00 0.00 0.00 0.00 0.00 0.00 0.00 0.00 0.00 0.00 0.00 0.00 0.00 0.00 0.00 0.00 0.00 0.00 0.00 0.00 0.00 0.00 0.01 0.01 0.01 0.02 0.02 0.02 0.02 0.02 0.02 0.02 0.02 0.02 0.04 0.05 0.06
0.00 0.00 0.00 0.00 0.00 0.00 0.00 0.00 0.00 0.00 0.00 0.00 0.00 0.00 0.00 0.00 0.00 0.00 0.00 0.00 0.00 0.00 0.00 0.00 0.00 0.00 0.00 0.00 0.01 0.01 0.01 0.02 0.03 0.03 0.02 0.02 0.02 0.02 0.02 0.02 0.03 0.04 0.06
0.00 0.00 0.00 0.00 0.00 0.00 0.00 0.00 0.00 0.00 0.00 0.00 0.00 0.00 0.00 0.00 0.00 0.00 0.00 0.00 0.00 0.00 0.00 0.00 0.00 0.00 0.00 0.00 0.01 0.01 0.01 0.02 0.03 0.04 0.04 0.03 0.02 0.02 0.01 0.02 0.02 0.03 0.05
0.00 0.00 0.00 0.00 0.00 0.00 0.00 0.00 0.00 0.00 0.00 0.00 0.00 0.00 0.00 0.00 0.00 0.00 0.00 0.00 0.00 0.00 0.00 0.00 0.00 0.00 0.00 0.00 0.00 0.01 0.01 0.02 0.03 0.05 0.05 0.04 0.05 0.04 0.02 0.02 0.02 0.03 0.04
0.00 0.00 0.00 0.00 0.00 0.00 0.00 0.00 0.00 0.00 0.00 0.00 0.00 0.00 0.00 0.00 0.00 0.00 0.01 0.00 0.00 0.00 0.01 0.00 0.00 0.00 0.00 0.00 0.00 0.00 0.01 0.02 0.03 0.05 0.05 0.04 0.07 0.06 0.05 0.04 0.05 0.04 0.05
0.00 0.00 0.00 0.00 0.00 0.00 0.00 0.00 0.00 0.00 0.00 0.00 0.00 0.00 0.00 0.00 0.00 0.00 0.00 0.00 0.00 0.00 0.00 0.00 0.00 0.00 0.00 0.00 0.00 0.00 0.00 0.01 0.02 0.05 0.07 0.05 0.06 0.08 0.06 0.05 0.07 0.07 0.07
0.00 0.00 0.00 0.00 0.00 0.00 0.00 0.00 0.00 0.00 0.00 0.00 0.00 0.00 0.00 0.00 0.00 0.00 0.01 0.00 0.00 0.00 0.00 0.00 0.00 0.00 0.00 0.00 0.00 0.00 0.00 0.01 0.01 0.03 0.09 0.09 0.06 0.06 0.07 0.06 0.07 0.09 0.09
0.00 0.00 0.00 0.00 0.00 0.00 0.00 0.00 0.00 0.00 0.00 0.00 0.00 0.00 0.00 0.00 0.00 0.00 0.00 0.00 0.00 0.00 0.00 0.00 0.00 0.00 0.00 0.00 0.00 0.00 0.00 0.01 0.01 0.01 0.06 0.12 0.10 0.08 0.06 0.05 0.06 0.07 0.09
MSLP
1016.47 1016.52 1016.55 1016.60 1016.69 1016.83 1017.00 1017.20 1017.40 1017.59 1017.74 1017.86 1017.95 1018.01 1018.06 1018.09 1018.11 1018.12 1018.12 1018.12 1018.12 1018.15 1018.23 1018.36 1018.57 1018.84 1019.16 1019.51 1019.86 1020.18 1020.46 1020.68 1020.87 1021.03 1021.19 1021.36 1021.56 1021.79 1022.03 1022.28 1022.51 1022.72 1022.92
1016.53 1016.57 1016.62 1016.68 1016.78 1016.92 1017.09 1017.28 1017.46 1017.63 1017.78 1017.90 1018.00 1018.06 1018.11 1018.13 1018.12 1018.08 1018.01 1017.94 1017.88 1017.85 1017.89 1018.00 1018.20 1018.47 1018.80 1019.17 1019.52 1019.85 1020.13 1020.36 1020.57 1020.75 1020.95 1021.18 1021.43 1021.71 1022.00 1022.29 1022.54 1022.76 1022.95
1016.61 1016.68 1016.75 1016.84 1016.97 1017.12 1017.28 1017.45 1017.61 1017.76 1017.88 1017.99 1018.06 1018.12 1018.14 1018.12 1018.06 1017.96 1017.82 1017.67 1017.53 1017.44 1017.43 1017.51 1017.70 1017.98 1018.33 1018.70 1019.07 1019.41 1019.70 1019.95 1020.17 1020.39 1020.62 1020.89 1021.20 1021.53 1021.87 1022.20 1022.48 1022.72 1022.92
1016.70 1016.80 1016.92 1017.06 1017.22 1017.39 1017.56 1017.71 1017.84 1017.95 1018.04 1018.10 1018.15 1018.17 1018.15 1018.09 1017.97 1017.80 1017.57 1017.34 1017.11 1016.95 1016.88 1016.93 1017.10 1017.38 1017.74 1018.13 1018.52 1018.87 1019.18 1019.44 1019.68 1019.92 1020.18 1020.49 1020.85 1021.23 1021.62 1021.99 1022.32 1022.59 1022.81
1016.76 1016.91 1017.09 1017.29 1017.50 1017.71 1017.88 1018.02 1018.12 1018.18 1018.22 1018.24 1018.25 1018.23 1018.17 1018.06 1017.88 1017.63 1017.32 1017.00 1016.69 1016.44 1016.31 1016.31 1016.45 1016.72 1017.08 1017.47 1017.87 1018.24 1018.56 1018.84 1019.09 1019.35 1019.65 1019.99 1020.38 1020.81 1021.24 1021.65 1022.03 1022.34 1022.60
1016.79 1016.98 1017.22 1017.49 1017.76 1018.00 1018.19 1018.32 1018.39 1018.42 1018.42 1018.40 1018.36 1018.31 1018.22 1018.07 1017.84 1017.53 1017.15 1016.74 1016.34 1016.02 1015.80 1015.74 1015.83 1016.06 1016.40 1016.78 1017.18 1017.55 1017.88 1018.16 1018.43 1018.71 1019.03 1019.39 1019.81 1020.27 1020.74 1021.20 1021.61 1021.97 1022.28
1016.76 1016.99 1017.28 1017.61 1017.93 1018.21 1018.43 1018.56 1018.61 1018.62 1018.59 1018.54 1018.49 1018.42 1018.32 1018.15 1017.90 1017.55 1017.12 1016.64 1016.17 1015.76 1015.46 1015.31 1015.33 1015.49 1015.78 1016.12 1016.49 1016.84 1017.16 1017.45 1017.73 1018.02 1018.35 1018.73 1019.17 1019.65 1020.14 1020.63 1021.09 1021.49 1021.85
1016.69 1016.93 1017.26 1017.63 1018.00 1018.32 1018.55 1018.69 1018.75 1018.74 1018.70 1018.65 1018.61 1018.55 1018.47 1018.32 1018.07 1017.71 1017.26 1016.74 1016.21 1015.72 1015.33 1015.08 1015.00 1015.07 1015.27 1015.54 1015.85 1016.17 1016.46 1016.73 1017.01 1017.30 1017.63 1018.02 1018.47 1018.96 1019.47 1019.98 1020.46 1020.90 1021.30
1016.61 1016.84 1017.18 1017.57 1017.96 1018.30 1018.55 1018.70 1018.76 1018.76 1018.74 1018.71 1018.70 1018.69 1018.65 1018.54 1018.34 1018.01 1017.57 1017.04 1016.46 1015.91 1015.43 1015.08 1014.89 1014.84 1014.92 1015.09 1015.32 1015.56 1015.81 1016.05 1016.30 1016.59 1016.92 1017.31 1017.76 1018.24 1018.76 1019.26 1019.76 1020.22 1020.65
1016.55 1016.75 1017.07 1017.45 1017.85 1018.19 1018.44 1018.60 1018.67 1018.68 1018.68 1018.69 1018.73 1018.78 1018.80 1018.77 1018.64 1018.37 1017.97 1017.45 1016.86 1016.27 1015.72 1015.28 1014.96 1014.79 1014.74 1014.79 1014.90 1015.06 1015.24 1015.43 1015.66 1015.93 1016.25 1016.63 1017.06 1017.53 1018.02 1018.52 1019.00 1019.46 1019.91
1016.52 1016.68 1016.97 1017.33 1017.70 1018.02 1018.26 1018.41 1018.48 1018.51 1018.54 1018.58 1018.67 1018.78 1018.88 1018.93 1018.87 1018.68 1018.34 1017.87 1017.30 1016.69 1016.10 1015.58 1015.16 1014.87 1014.69 1014.61 1014.61 1014.67 1014.77 1014.91 1015.10 1015.34 1015.63 1015.99 1016.40 1016.84 1017.31 1017.77 1018.22 1018.66 1019.10
1016.55 1016.67 1016.91 1017.22 1017.55 1017.83 1018.04 1018.17 1018.23 1018.26 1018.30 1018.37 1018.50 1018.66 1018.82 1018.94 1018.96 1018.85 1018.58 1018.18 1017.65 1017.06 1016.46 1015.90 1015.41 1015.02 1014.73 1014.54 1014.43 1014.39 1014.41 1014.49 1014.63 1014.84 1015.11 1015.43 1015.81 1016.21 1016.63 1017.05 1017.45 1017.85 1018.25
1016.60 1016.69 1016.89 1017.15 1017.42 1017.65 1017.82 1017.91 1017.95 1017.96 1017.99 1018.07 1018.21 1018.39 1018.59 1018.76 1018.84 1018.80 1018.61 1018.28 1017.82 1017.28 1016.71 1016.14 1015.63 1015.18 1014.82 1014.54 1014.34 1014.22 1014.17 1014.18 1014.28 1014.44 1014.67 1014.97 1015.30 1015.66 1016.02 1016.38 1016.72 1017.07 1017.42
1016.64 1016.72 1016.88 1017.09 1017.31 1017.49 1017.60 1017.65 1017.65 1017.63 1017.64 1017.70 1017.82 1018.00 1018.21 1018.39 1018.51 1018.51 1018.39 1018.13 1017.76 1017.29 1016.78 1016.26 1015.75 1015.30 1014.91 1014.58 1014.32 1014.13 1014.02 1013.98 1014.03 1014.15 1014.34 1014.59 1014.88 1015.19 1015.49 1015.78 1016.06 1016.33 1016.62
1016.62 1016.71 1016.85 1017.03 1017.20 1017.32 1017.39 1017.39 1017.35 1017.30 1017.27 1017.29 1017.38 1017.53 1017.70 1017.87 1017.99 1018.02 1017.95 1017.76 1017.47 1017.09 1016.67 1016.22 1015.77 1015.35 1014.97 1014.63 1014.34 1014.11 1013.95 1013.87 1013.87 1013.94 1014.09 1014.30 1014.54 1014.79 1015.04 1015.27 1015.48 1015.68 1015.90
1016.52 1016.62 1016.76 1016.91 1017.05 1017.14 1017.16 1017.13 1017.06 1016.97 1016.91 1016.89 1016.93 1017.02 1017.15 1017.27 1017.37 1017.40 1017.36 1017.22 1017.01 1016.72 1016.40 1016.04 1015.68 1015.32 1014.98 1014.66 1014.38 1014.13 1013.94 1013.82 1013.77 1013.81 1013.91 1014.06 1014.25 1014.46 1014.65 1014.82 1014.97 1015.12 1015.28
1016.30 1016.43 1016.57 1016.72 1016.83 1016.89 1016.90 1016.85 1016.77 1016.66 1016.58 1016.53 1016.52 1016.55 1016.62 1016.69 1016.74 1016.75 1016.71 1016.61 1016.45 1016.26 1016.02 1015.77 1015.50 1015.23 1014.95 1014.67 1014.40 1014.16 1013.95 1013.80 1013.71 1013.70 1013.75 1013.86 1014.00 1014.16 1014.30 1014.43 1014.54 1014.64 1014.75
1015.98 1016.13 1016.28 1016.42 1016.53 1016.59 1016.59 1016.55 1016.46 1016.37 1016.28 1016.21 1016.17 1016.16 1016.17 1016.18 1016.18 1016.16 1016.10 1016.01 1015.89 1015.76 1015.60 1015.44 1015.26 1015.07 1014.85 1014.63 1014.39 1014.16 1013.94 1013.77 1013.64 1013.59 1013.59 1013.65 1013.75 1013.86 1013.97 1014.06 1014.14 1014.20 1014.28
1015.59 1015.75 1015.90 1016.04 1016.15 1016.21 1016.23 1016.20 1016.14 1016.07 1016.00 1015.93 1015.88 1015.84 1015.81 1015.77 1015.72 1015.65 1015.57 1015.47 1015.37 1015.27 1015.17 1015.07 1014.97 1014.84 1014.70 1014.52 1014.32 1014.10 1013.88 1013.69 1013.54 1013.45 1013.41 1013.42 1013.48 1013.55 1013.63 1013.70 1013.75 1013.80 1013.85
1015.18 1015.33 1015.48 1015.61 1015.71 1015.78 1015.81 1015.81 1015.79 1015.75 1015.71 1015.67 1015.62 1015.58 1015.52 1015.44 1015.35 1015.24 1015.12 1015.00 1014.90 1014.81 1014.74 1014.68 1014.63 1014.56 1014.46 1014.33 1014.16 1013.96 1013.75 1013.55 1013.38 1013.26 1013.18 1013.16 1013.18 1013.22 1013.27 1013.32 1013.36 1013.39 1013.43
1014.78 1014.91 1015.04 1015.15 1015.24 1015.31 1015.35 1015.38 1015.38 1015.39 1015.38 1015.37 1015.35 1015.30 1015.23 1015.14 1015.01 1014.86 1014.71 1014.57 1014.44 1014.35 1014.29 1014.25 1014.22 1014.19 1014.13 1014.04 1013.91 1013.74 1013.54 1013.35 1013.17 1013.02 1012.92 1012.87 1012.86 1012.87 1012.90 1012.93 1012.95 1012.97 1013.00
1014.42 1014.53 1014.63 1014.71 1014.78 1014.83 1014.87 1014.90 1014.93 1014.96 1014.98 1015.00 1015.00 1014.97 1014.90 1014.80 1014.65 1014.48 1014.30 1014.13 1013.98 1013.87 1013.80 1013.77 1013.76 1013.75 1013.73 1013.67 1013.57 1013.43 1013.26 1013.08 1012.90 1012.75 1012.64 1012.56 1012.52 1012.52 1012.52 1012.53 1012.54 1012.54 1012.56
1014.12 1014.19 1014.25 1014.30 1014.33 1014.35 1014.36 1014.38 1014.41 1014.45 1014.49 1014.53 1014.54 1014.53 1014.47 1014.37 1014.22 1014.04 1013.84 1013.65 1013.48 1013.36 1013.28 1013.24 1013.24 1013.25 1013.25 1013.22 1013.16 1013.05 1012.92 1012.76 1012.60 1012.46 1012.34 1012.25 1012.20 1012.17 1012.15 1012.14 1012.13 1012.12 1012.11
1013.83 1013.88 1013.90 1013.90 1013.88 1013.86 1013.83 1013.82 1013.83 1013.86 1013.90 1013.95 1013.98 1013.98 1013.93 1013.84 1013.70 1013.52 1013.32 1013.12 1012.94 1012.81 1012.72 1012.68 1012.68 1012.70 1012.72 1012.73 1012.70 1012.63 1012.54 1012.41 1012.28 1012.15 1012.04 1011.95 1011.89 1011.84 1011.81 1011.78 1011.75 1011.71 1011.68
1013.52 1013.54 1013.52 1013.48 1013.41 1013.34 1013.27 1013.22 1013.20 1013.20 1013.24 1013.28 1013.32 1013.34 1013.31 1013.24 1013.12 1012.95 1012.76 1012.57 1012.40 1012.26 1012.17 1012.13 1012.13 1012.15 1012.19 1012.22 1012.22 1012.19 1012.13 1012.04 1011.93 1011.82 1011.72 1011.64 1011.57 1011.52 1011.48 1011.44 1011.39 1011.33 1011.27
1013.13 1013.13 1013.08 1012.99 1012.88 1012.76 1012.65 1012.57 1012.52 1012.51 1012.53 1012.58 1012.63 1012.66 1012.66 1012.62 1012.52 1012.38 1012.21 1012.04 1011.87 1011.74 1011.65 1011.60 1011.60 1011.63 1011.67 1011.71 1011.74 1011.73 1011.69 1011.63 1011.55 1011.46 1011.37 1011.30 1011.23 1011.18 1011.14 1011.09 1011.03 1010.97 1010.89
Thickness
5732 5731 5730 5729 5729 5728 5728 5727 5726 5725 5724 5722 5721 5720 5720 5720 5721 5722 5724 5726 5726 5724 5724 5723 5723 5723 5722 5721 5721 5721 5721 5721 5721 5721 5720 5720 5720 5720 5719 5719 5718 5717 5715
5729 5728 5726 5725 5725 5725 5724 5723 5723 5722 5720 5718 5717 5717 5717 5718 5718 5719 5721 5722 5723 5722 5722 5722 5721 5721 5721 5720 5720 5719 5719 5719 5719 5719 5719 5719 5719 5719 5718 5718 5717 5716 5715
5726 5724 5722 5721 5721 5721 5720 5719 5719 5718 5716 5715 5713 5713 5714 5715 5716 5717 5717 5718 5719 5720 5720 5720 5720 5720 5719 5719 5718 5718 5718 5718 5718 5718 5718 5718 5718 5718 5717 5717 5716 5716 5715
5722 5720 5718 5717 5717 5716 5715 5714 5713 5712 5710 5710 5709 5710 5712 5712 5713 5714 5715 5716 5716 5717 5718 5718 5719 5718 5718 5718 5717 5717 5717 5717 5717 5717 5717 5716 5716 5716 5716 5716 5716 5715 5714
5719 5717 5715 5713 5712 5711 5710 5709 5707 5706 5704 5704 5706 5707 5708 5709 5710 5711 5712 5713 5714 5715 5716 5717 5717 5717 5717 5717 5717 5717 5716 5716 5716 5716 5715 5715 5715 5715 5715 5715 5715 5714 5714
5716 5714 5712 5710 5708 5706 5704 5703 5702 5701 5700 5700 5702 5703 5704 5706 5707 5708 5709 5710 5711 5712 5713 5714 5715 5716 5716 5716 5716 5716 5715 5715 5715 5715 5714 5714 5714 5714 5714 5714 5714 5714 5713
5714 5712 5709 5706 5704 5701 5699 5698 5697 5695 5695 5695 5694 5694 5698 5702 5702 5704 5705 5706 5707 5709 5710 5711 5713 5713 5714 5715 5715 5715 5714 5713 5714 5714 5713 5713 5713 5713 5713 5713 5713 5712 5712
5711 5709 5706 5703 5700 5698 5695 5693 5691 5689 5688 5689 5686 5683 5681 5687 5694 5699 5700 5701 5702 5704 5706 5708 5709 5710 5711 5712 5713 5713 5713 5713 5712 5712 5712 5712 5712 5712 5712 5712 5712 5711 5711
5709 5707 5704 5701 5698 5695 5691 5689 5687 5684 5681 5682 5681 5677 5672 5670 5677 5687 5691 5694 5695 5697 5699 5702 5703 5705 5706 5707 5709 5710 5711 5711 5711 5711 5711 5711 5711 5711 5711 5711 5711 5711 5711
5707 5704 5702 5698 5695 5692 5689 5686 5684 5681 5678 5674 5674 5674 5673 5671 5667 5670 5678 5683 5686 5689 5691 5695 5697 5699 5700 5702 5704 5706 5707 5708 5709 5708 5709 5709 5709 5710 5710 5710 5710 5710 5710
5704 5702 5699 5696 5692 5689 5686 5683 5680 5677 5674 5671 5669 5668 5667 5666 5665 5662 5662 5669 5675 5680 5683 5686 5689 5691 5694 5696 5698 5700 5702 5703 5704 5705 5705 5706 5707 5708 5708 5709 5709 5709 5710
5700 5699 5696 5693 5689 5686 5682 5679 5677 5674 5671 5668 5666 5663 5661 5659 5657 5656 5655 5657 5661 5668 5675 5678 5681 5684 5686 5688 5691 5694 5695 5696 5698 5700 5701 5703 5704 5706 5707 5708 5708 5708 5709
5696 5695 5693 5689 5686 5683 5680 5676 5673 5670 5667 5664 5662 5659 5657 5655 5654 5652 5650 5649 5651 5657 5663 5668 5672 5675 5678 5680 5683 5686 5688 5691 5692 5694 5696 5699 5701 5703 5705 5706 5706 5707 5708
5695 5693 5690 5687 5683 5680 5677 5673 5669 5666 5663 5660 5658 5655 5652 5651 5649 5647 5645 5643 5642 5645 5650 5655 5662 5666 5668 5671 5674 5677 5680 5683 5686 5688 5690 5693 5696 5698 5701 5703 5704 5706 5707
5694 5691 5688 5684 5681 5677 5674 5670 5665 5662 5659 5656 5653 5650 5647 5645 5644 5642 5640 5638 5635 5634 5636 5643 5648 5655 5658 5661 5665 5668 5671 5674 5677 5681 5684 5687 5690 5693 5696 5699 5701 5703 5705
5692 5689 5685 5682 5678 5674 5670 5666 5662 5659 5655 5651 5648 5645 5642 5640 5638 5636 5634 5632 5630 5628 5628 5632 5637 5643 5647 5651 5655 5658 5662 5665 5669 5672 5676 5680 5683 5687 5691 5694 5697 5699 5701
5690 5686 5683 5679 5675 5671 5667 5662 5658 5654 5650 5646 5643 5640 5636 5634 5631 5629 5627 5624 5622 5621 5621 5625 5628 5633 5636 5640 5644 5648 5653 5656 5660 5664 5668 5672 5676 5680 5685 5688 5692 5695 5697
5689 5685 5680 5676 5672 5668 5664 5658 5654 5650 5645 5641 5637 5634 5630 5628 5624 5621 5619 5616 5615 5614 5613 5615 5618 5621 5625 5630 5634 5638 5643 5648 5652 5657 5661 5665 5669 5673 5678 5682 5686 5690 5693
5686 5682 5678 5673 5669 5665 5660 5656 5651 5646 5641 5637 5632 5628 5624 5620 5616 5613 5611 5609 5607 5608 5606 5606 5608 5610 5614 5618 5622 5627 5632 5637 5643 5648 5653 5658 5662 5666 5671 5675 5680 5684 5688
5683 5679 5674 5670 5665 5661 5657 5652 5647 5642 5637 5632 5627 5623 5618 5614 5610 5607 5604 5602 5600 5598 5597 5597 5598 5600 5602 5606 5610 5613 5618 5625 5631 5638 5644 5649 5654 5658 5664 5669 5674 5678 5682
5681 5676 5671 5666 5662 5657 5653 5648 5643 5638 5631 5626 5621 5617 5613 5609 5606 5602 5599 5596 5593 5590 5589 5588 5589 5590 5592 5594 5597 5602 5606 5612 5620 5627 5632 5639 5644 5650 5655 5661 5667 5672 5677
5676 5672 5667 5662 5657 5654 5651 5646 5639 5633 5626 5621 5615 5611 5607 5603 5601 5598 5595 5593 5589 5585 5582 5581 5581 5581 5584 5585 5588 5592 5595 5600 5606 5616 5620 5627 5634 5640 5647 5654 5660 5666 5671
5672 5667 5663 5658 5653 5650 5646 5641 5636 5628 5621 5615 5610 5605 5602 5599 5595 5591 5589 5587 5584 5583 5581 5577 5576 5576 5577 5579 5580 5583 5586 5590 5597 5604 5608 5617 5624 5631 5639 5646 5653 5659 5665
5667 5663 5658 5654 5649 5646 5642 5637 5631 5624 5617 5611 5605 5600 5595 5592 5589 5585 5582 5579 5577 5576 5574 5573 5573 5573 5574 5574 5575 5576 5579 5583 5590 5595 5599 5606 5615 5622 5631 5638 5645 5652 5658
5663 5659 5655 5650 5645 5642 5638 5632 5626 5618 5611 5606 5601 5596 5591 5587 5584 5580 5576 5572 5571 5570 5570 5569 5569 5569 5569 5569 5569 5568 5570 5572 5579 5586 5591 5597 5606 5612 5621 5630 5637 5645 5651
5660 5655 5651 5646 5642 5638 5634 5628 5622 5613 5606 5602 5596 5591 5588 5583 5579 5575 5570 5566 5563 5563 5562 5562 5562 5563 5563 5563 5564 5563 5565 5566 5570 5576 5585 5589 5597 5601 5610 5621 5629 5636 5643